TimeCST,TemperatureF,Dew PointF,Humidity,Sea Level PressureIn,VisibilityMPH,Wind Direction,Wind SpeedMPH,Gust SpeedMPH,PrecipitationIn,Events,Conditions,WindDirDegrees,DateUTC
12:52 AM,19.9,17.1,89,30.24,10.0,Calm,Calm,-,N/A,,Clear,0,2011-11-28 06:52:00
1:52 AM,19.0,17.1,92,30.22,10.0,Calm,Calm,-,N/A,,Clear,0,2011-11-28 07:52:00
2:52 AM,19.0,16.0,88,30.21,10.0,Calm,Calm,-,N/A,,Clear,0,2011-11-28 08:52:00
3:52 AM,18.0,15.1,88,30.20,10.0,SW,4.6,-,N/A,,Clear,230,2011-11-28 09:52:00
4:52 AM,17.1,15.1,92,30.19,10.0,Calm,Calm,-,N/A,,Clear,0,2011-11-28 10:52:00
5:52 AM,18.0,16.0,92,30.21,10.0,Calm,Calm,-,N/A,,Clear,0,2011-11-28 11:52:00
6:52 AM,17.1,15.1,92,30.21,10.0,Calm,Calm,-,N/A,,Clear,0,2011-11-28 12:52:00
7:52 AM,19.0,16.0,88,30.19,10.0,Calm,Calm,-,N/A,,Clear,0,2011-11-28 13:52:00
8:52 AM,25.0,21.0,85,30.20,10.0,Calm,Calm,-,N/A,,Clear,0,2011-11-28 14:52:00
9:52 AM,28.9,23.0,78,30.20,10.0,Calm,Calm,-,N/A,,Clear,0,2011-11-28 15:52:00
10:52 AM,37.9,24.1,57,30.17,10.0,SSW,4.6,-,N/A,,Clear,210,2011-11-28 16:52:00
11:52 AM,41.0,24.1,51,30.14,10.0,Calm,Calm,-,N/A,,Clear,0,2011-11-28 17:52:00
12:52 PM,44.1,21.9,42,30.10,10.0,Calm,Calm,-,N/A,,Clear,0,2011-11-28 18:52:00
1:52 PM,46.0,19.0,34,30.08,10.0,Calm,Calm,-,N/A,,Clear,0,2011-11-28 19:52:00
2:52 PM,48.9,18.0,29,30.07,10.0,Calm,Calm,-,N/A,,Clear,0,2011-11-28 20:52:00
3:52 PM,48.9,19.9,32,30.08,10.0,Calm,Calm,-,N/A,,Clear,0,2011-11-28 21:52:00
4:52 PM,46.0,18.0,33,30.09,10.0,Calm,Calm,-,N/A,,Clear,0,2011-11-28 22:52:00
5:52 PM,42.1,17.1,37,30.10,10.0,NW,5.8,-,N/A,,Clear,320,2011-11-28 23:52:00
6:52 PM,41.0,19.0,41,30.12,10.0,NNW,3.5,-,N/A,,Clear,330,2011-11-29 00:52:00
7:52 PM,30.9,21.9,69,30.14,10.0,Calm,Calm,-,N/A,,Clear,0,2011-11-29 01:52:00
8:52 PM,32.0,21.0,64,30.14,10.0,Calm,Calm,-,N/A,,Clear,0,2011-11-29 02:52:00
9:52 PM,28.9,21.9,75,30.14,10.0,Calm,Calm,-,N/A,,Clear,0,2011-11-29 03:52:00
10:52 PM,32.0,21.0,64,30.14,10.0,West,4.6,-,N/A,,Clear,270,2011-11-29 04:52:00
11:52 PM,37.9,21.0,51,30.16,10.0,North,6.9,17.3,N/A,,Clear,360,2011-11-29 05:52:00